FW6360 Weather Reports


time (UTC)temp
F
wind
direction
speed
knots
gust
knots
rain 1hr
in
rain 24hr
in
rain mn
in
humidity
%
barometer
mb
20260504000219 70 0.0 0.0 0.00 0.00 0.00 41 1003.6
20260503235217 70 0.0 0.0 0.00 0.00 0.00 40 1003.6
20260503234217 69 0.0 0.0 0.00 0.00 0.00 39 1003.6
20260503233217 69 0.0 0.0 0.00 0.00 0.00 40 1003.6
20260503232237 69 0.0 0.0 0.00 0.00 0.00 41 1003.7
20260503231217 69 0.0 0.0 0.00 0.00 0.00 41 1003.8
20260503230217 69 0.0 0.0 0.00 0.00 0.00 42 1003.9
20260503225237 69 0.0 0.0 0.00 0.00 0.00 41 1004.1
20260503224217 69 0.0 0.0 0.00 0.00 0.00 41 1004.0
20260503223217 69 0.0 0.0 0.00 0.00 0.00 41 1004.0
20260503222217 68 0.0 0.0 0.00 0.00 0.00 42 1004.0
20260503221217 68 0.0 0.0 0.00 0.00 0.00 43 1004.3
20260503220217 68 0.0 0.0 0.00 0.00 0.00 41 1004.2
20260503215217 68 0.0 0.0 0.00 0.00 0.00 42 1004.3
20260503214217 68 0.0 0.9 0.00 0.00 0.00 42 1004.3
20260503213217 67 0.0 0.0 0.00 0.00 0.00 42 1004.2
20260503212217 67 0.0 0.0 0.00 0.00 0.00 42 1004.2
20260503211237 67 0.0 0.9 0.00 0.00 0.00 42 1004.3
20260503210217 66 0.0 0.0 0.00 0.00 0.00 43 1004.5
20260503205217 67 0.0 0.0 0.00 0.00 0.00 43 1004.7
20260503204217 66 0.0 0.0 0.00 0.00 0.00 44 1004.6
20260503203217 67 0.0 0.0 0.00 0.00 0.00 43 1004.9
20260503202217 66 0.0 0.0 0.00 0.00 0.00 43 1005.2
20260503201217 66 0.0 0.0 0.00 0.00 0.00 44 1005.3
20260503200217 66 0.0 0.0 0.00 0.00 0.00 42 1005.5
20260503195217 65 0.0 0.0 0.00 0.00 0.00 43 1005.5
20260503194216 65 0.0 0.0 0.00 0.00 0.00 44 1005.7
20260503193216 65 0.0 0.0 0.00 0.00 0.00 42 1006.0
20260503192216 65 0.0 0.0 0.00 0.00 0.00 44 1006.0
20260503191217 64 0.0 4.3 0.00 0.00 0.00 44 1006.1
20260503190237 64 0.0 0.0 0.00 0.00 0.00 46 1006.2
20260503185237 63 0.0 0.0 0.00 0.00 0.00 46 1006.2
20260503184217 62 0.0 0.0 0.00 0.00 0.00 50 1006.1
20260503183217 62 0.0 0.0 0.00 0.00 0.00 49 1006.6
20260503182217 62 0.0 0.0 0.00 0.00 0.00 49 1006.6
20260503181217 62 0.0 0.0 0.00 0.00 0.00 49 1006.8
20260503180217 62 0.0 0.0 0.00 0.00 0.00 48 1006.7
20260503175216 61 0.0 0.0 0.00 0.00 0.00 50 1006.9
20260503174217 61 225 5.2 14.8 0.00 0.00 0.00 48 1007.1
20260503173217 61 0.0 2.6 0.00 0.00 0.00 48 1006.9
20260503172237 60 225 7.0 11.3 0.00 0.00 0.00 51 1007.3
20260503171237 60 225 8.7 12.2 0.00 0.00 0.00 52 1007.3
20260503170217 60 0.0 0.9 0.00 0.00 0.00 51 1007.7
20260503160217 57 0.0 0.0 0.00 0.00 0.00 58 1008.4
20260503150216 51 0.0 4.3 0.00 0.00 0.00 71 1009.3
20260503140217 52 203 0.9 7.0 0.00 0.00 0.00 65 1009.8
20260503131216 54 0.0 0.0 0.00 0.00 0.00 59 1010.5
20260503130216 53 0.0 0.0 0.00 0.00 0.00 60 1010.7
20260503120216 49 0.0 0.0 0.00 0.00 0.00 58 1010.9
20260503110237 49 0.0 0.0 0.00 0.00 0.00 56 1010.7
20260503100216 49 0.0 0.0 0.00 0.00 0.00 55 1011.2
20260503090216 47 0.0 0.0 0.00 0.00 0.00 55 1011.6
20260503081216 47 0.0 0.0 0.00 0.00 0.00 54 1012.0
20260503080216 47 0.0 0.0 0.00 0.00 0.00 54 1012.1
20260503072216 48 0.0 0.0 0.00 0.00 0.00 52 1012.3
20260503071216 48 0.0 0.0 0.00 0.00 0.00 52 1012.2
20260503070236 48 0.0 0.0 0.00 0.00 0.00 52 1012.3
20260503060236 49 0.0 0.0 0.00 0.00 0.00 50 1012.9
20260503054216 49 0.0 0.0 0.00 0.00 0.00 50 1013.1
20260503053317 49 0.0 0.0 0.00 0.00 0.00 49 1013.1
20260503052216 49 0.0 0.0 0.00 0.00 0.00 48 1013.1
20260503051216 50 0.0 0.0 0.00 0.00 0.00 48 1013.3
20260503050216 50 0.0 0.0 0.00 0.00 0.00 48 1013.4
20260503045218 50 0.0 0.0 0.00 0.00 0.00 47 1013.5
20260503044217 50 0.0 0.0 0.00 0.00 0.00 47 1013.4
20260503043237 50 0.0 0.0 0.00 0.00 0.00 47 1013.5
20260503042217 50 0.0 0.0 0.00 0.00 0.00 47 1013.6
20260503041237 50 0.0 0.0 0.00 0.00 0.00 47 1013.7
20260503040217 50 0.0 0.0 0.00 0.00 0.00 47 1013.9
20260503035217 50 0.0 0.0 0.00 0.00 0.00 47 1013.9
20260503034237 50 0.0 0.0 0.00 0.00 0.00 46 1013.9
20260503033217 50 0.0 0.0 0.00 0.00 0.00 46 1013.9
20260503032217 50 0.0 0.0 0.00 0.00 0.00 46 1014.0
20260503031217 50 0.0 0.0 0.00 0.00 0.00 46 1014.1
20260503030217 50 0.0 0.0 0.00 0.00 0.00 46 1014.2
20260503025217 50 0.0 0.0 0.00 0.00 0.00 47 1014.3
20260503024217 50 0.0 0.0 0.00 0.00 0.00 47 1014.2
20260503023217 50 0.0 0.0 0.00 0.00 0.00 47 1014.2
20260503022217 50 0.0 0.0 0.00 0.00 0.00 47 1014.3
20260503021217 51 0.0 0.0 0.00 0.00 0.00 46 1014.1
20260503020237 51 0.0 0.0 0.00 0.00 0.00 45 1014.0
20260503015217 51 0.0 0.0 0.00 0.00 0.00 44 1013.9
20260503014217 51 0.0 0.0 0.00 0.00 0.00 44 1013.9
20260503013217 52 0.0 0.0 0.00 0.00 0.00 43 1013.9
20260503012217 52 0.0 0.0 0.00 0.00 0.00 42 1013.7
20260503011217 53 0.0 0.0 0.00 0.00 0.00 41 1013.7
20260503010217 54 0.0 0.0 0.00 0.00 0.00 40 1013.7
20260503005237 55 0.0 0.0 0.00 0.00 0.00 38 1013.7
20260503004217 56 0.0 0.0 0.00 0.00 0.00 38 1013.6
20260503003217 57 0.0 0.0 0.00 0.00 0.00 37 1013.6
20260503002237 57 0.0 0.0 0.00 0.00 0.00 36 1013.7
20260503001237 57 0.0 0.0 0.00 0.00 0.00 35 1013.8